Location: Las Vegas
(36.1750°N, 115.1360°W)
Time: 03:50:43
(UTC-08:00)

Amateur Radio Satellites - All Passes

Search period start: 11 December 2016 03:20
Search period end: 12 December 2016 03:20
Location: Las Vegas, 36.1750°N, 115.1360°W

Satellite Date Start Highest point End Downlink Frequencies (MHz)
Time Altitude Azimuth
AO-7 11 Dec 03:21:31 03:29:56 75° 106° (ESE) 03:38:17 29.400- 29.500
CUBESAT XI-V 11 Dec 03:34:35 03:39:00 50° 74° (ENE) 03:43:27 437.345
BEESAT 2 11 Dec 03:34:59 03:38:54 89° 299° (WNW) 03:42:53 435.950
ITAMSAT 1 11 Dec 03:46:29 03:50:54 29° 292° (WNW) 03:55:18 435.822/435.867
RS-15 11 Dec 04:09:59 04:17:42 21° 99° (E) 04:25:37 29.354- 29.394
HORYU 2 11 Dec 04:13:36 04:16:49 20° 95° (E) 04:20:01 437.375
BRITE-PL 11 Dec 04:22:28 04:27:50 45° 98° (E) 04:33:15 437.365/2234.400
Cosmos 2504 11 Dec 04:23:23 04:27:56 15° 63° (ENE) 04:32:20 435.465 / 435.565
STARS 11 Dec 04:32:20 04:35:57 24° 264° (W) 04:39:35 437.465
BEESAT 3 11 Dec 04:34:43 04:35:29 10° 315° (NW) 04:36:16 437.485
SO-50 11 Dec 04:44:34 04:47:04 15° 252° (WSW) 04:49:33 436.795
DOVE 4 11 Dec 04:50:34 04:52:48 13° 89° (E) 04:55:01 437.250
Cubesat XI-IV 11 Dec 04:51:16 04:54:21 15° 92° (E) 04:57:26 437.490
YUBILEINY 11 Dec 04:54:32 05:03:10 54° 79° (ENE) 05:11:46 435.215
AIST 1 11 Dec 04:56:41 04:59:36 17° 74° (ENE) 05:02:30
GOMX 1 11 Dec 05:07:01 05:12:23 51° 99° (E) 05:17:35 467.674
LilacSat-2 11 Dec 05:13:48 05:16:56 24° 96° (E) 05:20:02 437.200
CUBESAT XI-V 11 Dec 05:14:27 05:16:38 13° 268° (W) 05:18:50 437.345
AO-7 11 Dec 05:15:39 05:21:51 24° 303° (WNW) 05:28:02 29.400- 29.500
AIST 2 11 Dec 05:16:13 05:19:26 23° 111° (ESE) 05:22:42 435.215
NOAA 18 11 Dec 05:20:55 05:24:44 19° 94° (E) 05:28:32 137.9125
Cosmos 2491 11 Dec 05:21:21 05:29:33 46° 88° (E) 05:37:43 435.465 / 435.565
HORYU 2 11 Dec 05:49:28 05:53:23 32° 290° (WNW) 05:57:16 437.375
CUTE-I 11 Dec 06:01:30 06:06:50 80° 102° (ESE) 06:12:09 437.470
BRITE-PL 11 Dec 06:01:37 06:05:57 24° 292° (WNW) 06:10:22 437.365/2234.400
NOAA 15 11 Dec 06:05:11 06:10:30 85° 284° (WNW) 06:15:48 137.62
Cosmos 2504 11 Dec 06:14:00 06:22:43 85° 84° (E) 06:30:47 435.465 / 435.565
RS-15 11 Dec 06:16:40 06:28:23 90° 292° (WNW) 06:40:43 29.354- 29.394
STRAND 1 11 Dec 06:16:40 06:21:48 88° 81° (E) 06:26:58 437.568
DOVE 4 11 Dec 06:25:46 06:30:57 64° 285° (WNW) 06:35:52 437.250
Cubesat XI-IV 11 Dec 06:29:31 06:34:44 56° 288° (WNW) 06:39:54 437.490
AIST 1 11 Dec 06:33:18 06:37:16 33° 269° (W) 06:41:12
GOMX 1 11 Dec 06:46:06 06:49:59 20° 294° (WNW) 06:53:49 467.674
LilacSat-2 11 Dec 06:48:25 06:51:01 18° 290° (WNW) 06:53:37 437.200
YUBILEINY 11 Dec 06:52:13 06:59:25 29° 276° (W) 07:06:38 435.215
AIST 2 11 Dec 06:54:12 06:57:45 28° 307° (NW) 07:01:21 435.215
NOAA 18 11 Dec 07:00:18 07:05:37 49° 289° (WNW) 07:10:53 137.9125
AAUSAT CUBESAT 2 11 Dec 07:01:16 07:03:05 13° 92° (E) 07:04:54 437.432
CINEMA 3 11 Dec 07:01:36 07:06:17 75° 101° (ESE) 07:10:43 145.822/145.860
PRISM 11 Dec 07:03:17 07:05:26 14° 66° (ENE) 07:07:36 437.425
CUTE 1.7 + AOD 2 11 Dec 07:04:28 07:08:31 44° 99° (E) 07:12:34 437.475
HO-68 11 Dec 07:11:00 07:18:04 56° 102° (ESE) 07:25:05 435.675
UWE-3 11 Dec 07:12:13 07:13:43 12° 91° (E) 07:15:12 435.000/436.395/437.385
Cosmos 2491 11 Dec 07:18:41 07:26:28 35° 286° (WNW) 07:34:16 435.465 / 435.565
CANX-2 11 Dec 07:23:36 07:27:51 88° 283° (WNW) 07:32:06 2200.000
COMPASS 1 11 Dec 07:35:43 07:39:44 45° 99° (E) 07:43:43 437.405
SEEDS 11 Dec 07:36:35 07:40:46 74° 101° (E) 07:44:59 437.485
ZACube-1 11 Dec 07:39:05 07:41:23 14° 93° (E) 07:43:40 437.345
FUNcube-1 11 Dec 07:43:13 07:45:35 15° 93° (E) 07:47:56 145.935
CUTE-I 11 Dec 07:44:15 07:46:09 12° 299° (WNW) 07:48:02 437.470
CUSAT 1 11 Dec 07:45:18 07:47:42 23° 96° (E) 07:49:53 437.405
UNISAT 6 11 Dec 07:48:49 07:50:20 11° 64° (ENE) 07:51:52 437.425
JUGNU 11 Dec 07:57:41 07:59:47 12° 168° (SSE) 08:01:52 437.505
Oscar 11 11 Dec 08:05:03 08:08:45 27° 96° (E) 08:12:24 145.826/435.025
Cosmos 2504 11 Dec 08:09:58 08:14:46 17° 282° (WNW) 08:19:26 435.465 / 435.565
TIGRISAT 11 Dec 08:14:43 08:18:11 21° 69° (ENE) 08:21:37 435.000
CUBEBUG 2 11 Dec 08:16:27 08:20:42 66° 285° (WNW) 08:24:50 437.445
ANTELSAT 11 Dec 08:17:31 08:21:13 24° 69° (ENE) 08:24:53 437.575/2403.000
RS-15 11 Dec 08:32:46 08:42:43 29° 323° (NW) 08:53:02 29.354- 29.394
AAUSAT CUBESAT 2 11 Dec 08:34:47 08:38:44 43° 286° (WNW) 08:42:41 437.432
PRISM 11 Dec 08:36:32 08:40:21 39° 261° (W) 08:44:13 437.425
DELFI C3 11 Dec 08:41:33 08:44:47 23° 96° (E) 08:48:00 145.870
CUTE 1.7 + AOD 2 11 Dec 08:41:51 08:43:56 14° 293° (WNW) 08:46:02 437.475
AO-85 11 Dec 08:46:22 08:49:57 33° 55° (NE) 08:53:29 145.980
UWE-3 11 Dec 08:46:23 08:50:25 46° 287° (WNW) 08:54:23 435.000/436.395/437.385
Cosmos 2499 11 Dec 08:59:03 09:02:06 12° 61° (ENE) 09:05:04 435.465 / 435.565
HO-68 11 Dec 08:59:36 09:05:18 26° 298° (WNW) 09:10:59 435.675
COMPASS 1 11 Dec 09:12:53 09:14:52 13° 293° (WNW) 09:16:49 437.405
ZACube-1 11 Dec 09:13:58 09:17:49 37° 287° (WNW) 09:21:36 437.345
JAS-2 11 Dec 09:15:26 09:20:16 25° 68° (ENE) 09:24:44 435.910
FUNcube-1 11 Dec 09:18:09 09:21:57 36° 287° (WNW) 09:25:43 145.935
UNISAT 6 11 Dec 09:21:49 09:26:28 66° 259° (WSW) 09:31:05 437.425
DANDE 11 Dec 09:28:31 09:32:35 47° 278° (W) 09:35:45 436.750
POPSAT HIP 1 11 Dec 09:29:18 09:31:28 14° 66° (ENE) 09:33:38 437.405
PCSat 11 Dec 09:29:40 09:35:01 69° 114° (ESE) 09:40:25 145.827
GONETS M04 11 Dec 09:34:08 09:40:38 22° 69° (ENE) 09:47:05
Oscar 11 11 Dec 09:41:23 09:44:42 22° 291° (WNW) 09:48:01 145.826/435.025
JUGNU 11 Dec 09:44:28 09:48:00 16° 178° (S) 09:51:31 437.505
HUMSAT D 11 Dec 09:48:16 09:52:21 81° 100° (E) 09:56:26 437.325/437.525
TIGRISAT 11 Dec 09:50:22 09:54:37 34° 262° (W) 09:58:50 435.000
ANTELSAT 11 Dec 09:53:39 09:57:44 30° 263° (W) 10:01:47 437.575/2403.000
DELFI C3 11 Dec 10:16:22 10:19:27 22° 290° (WNW) 10:22:32 145.870
NANOSAT C BR1 11 Dec 10:17:19 10:21:23 46° 74° (ENE) 10:25:29 145.865
AO-85 11 Dec 10:27:40 10:30:01 16° 250° (WSW) 10:32:22 145.980
QB50P2 11 Dec 10:28:59 10:33:15 77° 76° (ENE) 10:37:32 145.880/145.840
POLYITAN 1 11 Dec 10:29:20 10:33:36 72° 76° (ENE) 10:37:53 437.675
DUCHIFAT 1 11 Dec 10:36:07 10:40:22 73° 75° (ENE) 10:44:37 145.980
QB50P1 11 Dec 10:40:20 10:44:37 84° 261° (W) 10:48:55 145.935-145.965
AISAT 11 Dec 10:45:38 10:48:36 17° 94° (E) 10:51:33 437.250
Cosmos 2499 11 Dec 10:48:26 10:56:51 76° 82° (E) 11:04:34 435.465 / 435.565
CUBEBUG 1 11 Dec 10:54:36 10:58:36 32° 97° (E) 11:02:32 437.445
RS-15 11 Dec 10:54:55 11:01:26 15° 359° (N) 11:07:59 29.354- 29.394
JAS-2 11 Dec 10:59:12 11:05:10 42° 260° (W) 11:10:32 435.910
POPSAT HIP 1 11 Dec 11:02:43 11:06:49 45° 261° (W) 11:10:57 437.405
Oscar 19 11 Dec 11:03:39 11:06:20 14° 63° (ENE) 11:09:01 437.125/150
ESTCUBE 1 11 Dec 11:03:42 11:08:14 72° 102° (ESE) 11:12:44 437.505/2401.250
50 SAT 11 Dec 11:04:14 11:06:48 18° 95° (E) 11:09:21 437.505
BUGSAT 1 11 Dec 11:08:06 11:12:17 62° 75° (ENE) 11:16:30 437.445
SPROUT 11 Dec 11:09:35 11:12:42 20° 95° (E) 11:15:48 437.525
UKube-1 11 Dec 11:11:41 11:12:44 11° 92° (E) 11:13:46 .
BEESAT 3 11 Dec 11:13:36 11:16:28 19° 50° (NE) 11:19:19 437.485
DX 1 11 Dec 11:15:00 11:17:56 17° 94° (E) 11:20:52 434.975-435.025
PCSat 11 Dec 11:15:31 11:18:56 17° 312° (NW) 11:22:22 145.827
VELOX 1 11 Dec 11:21:04 11:25:18 41° 99° (E) 11:29:30 145.980
GONETS M04 11 Dec 11:29:30 11:38:09 70° 267° (W) 11:46:49
JUGNU 11 Dec 11:33:20 11:36:14 14° 189° (S) 11:39:07 437.505
SRMSAT 11 Dec 11:35:05 11:38:23 15° 175° (S) 11:41:41 437.500
Gurwin Techsat 1B 11 Dec 11:47:21 11:51:09 20° 65° (ENE) 11:54:56 435.225
NANOSAT C BR1 11 Dec 11:55:30 11:57:19 12° 268° (W) 11:59:08 145.865
BEESAT 2 11 Dec 11:55:38 11:58:56 23° 52° (NE) 12:02:12 435.950
TISAT 1 11 Dec 12:10:23 12:12:33 14° 93° (E) 12:14:41 437.305
AISAT 11 Dec 12:21:03 12:25:09 37° 289° (WNW) 12:29:14 437.250
AO-7 11 Dec 12:29:29 12:34:02 16° 52° (NE) 12:38:36 29.400- 29.500
ISS 11 Dec 12:31:22 12:34:00 23° 130° (SE) 12:36:39 145.825
CUBEBUG 1 11 Dec 12:31:23 12:34:37 20° 292° (WNW) 12:37:50 437.445
50 SAT 11 Dec 12:37:14 12:39:59 21° 289° (WNW) 12:42:44 437.505
Oscar 19 11 Dec 12:40:01 12:45:04 63° 258° (WSW) 12:50:11 437.125/150
Cosmos 2499 11 Dec 12:43:41 12:48:48 18° 281° (W) 12:53:44 435.465 / 435.565
UKube-1 11 Dec 12:44:49 12:49:04 55° 286° (WNW) 12:53:17 .
SPROUT 11 Dec 12:44:54 12:48:37 30° 289° (WNW) 12:52:18 437.525
DX 1 11 Dec 12:50:11 12:54:12 35° 289° (WNW) 12:58:10 434.975-435.025
BEESAT 3 11 Dec 12:50:33 12:54:10 34° 246° (WSW) 12:57:45 437.485
VELOX 1 11 Dec 12:58:38 13:01:22 16° 294° (WNW) 13:04:07 145.980
RS-15 11 Dec 13:10:16 13:20:21 28° 35° (NE) 13:30:13 29.354- 29.394
ITAMSAT 1 11 Dec 13:22:19 13:27:01 35° 70° (ENE) 13:31:44 435.822/435.867
O/OREOS (USA 219) 11 Dec 13:23:21 13:26:43 21° 101° (E) 13:30:05 437.305
SWISSCUBE 11 Dec 13:23:24 13:26:55 20° 95° (E) 13:30:26 437.505
SRMSAT 11 Dec 13:23:29 13:26:47 15° 185° (S) 13:30:03 437.500
Gurwin Techsat 1B 11 Dec 13:25:37 13:30:42 46° 261° (W) 13:35:49 435.225
BEESAT 11 Dec 13:26:49 13:30:17 20° 95° (E) 13:33:43 436.000
BEESAT 2 11 Dec 13:33:16 13:36:39 26° 248° (WSW) 13:40:02 435.950
AUBIESAT-1 11 Dec 13:41:25 13:44:12 16° 97° (E) 13:46:52 437.475
TISAT 1 11 Dec 13:44:23 13:48:20 40° 287° (WNW) 13:52:15 437.305
ITUPSAT 1 11 Dec 13:57:51 14:02:22 42° 99° (E) 14:06:52 437.325
M-CUBED/EXP-1 PRIME 11 Dec 13:58:03 14:02:09 32° 101° (E) 14:06:01 437.505
ISS 11 Dec 14:07:27 14:10:23 30° 326° (NW) 14:13:21 145.825
AO-7 11 Dec 14:17:12 14:25:29 79° 70° (ENE) 14:33:50 29.400- 29.500
KKS-1 11 Dec 14:59:46 15:02:47 18° 94° (E) 15:05:46 437.445
SWISSCUBE 11 Dec 15:00:27 15:04:45 35° 290° (WNW) 15:09:03 437.505
O/OREOS (USA 219) 11 Dec 15:01:48 15:05:52 32° 296° (WNW) 15:09:57 437.305
ITAMSAT 1 11 Dec 15:02:18 15:06:30 24° 264° (W) 15:10:42 435.822/435.867
BEESAT 11 Dec 15:03:46 15:08:07 36° 289° (WNW) 15:12:26 436.000
HORYU 2 11 Dec 15:09:56 15:12:21 14° 65° (ENE) 15:14:44 437.375
MOZHAYETS 4 11 Dec 15:13:54 15:18:28 71° 101° (ESE) 15:23:00
AUBIESAT-1 11 Dec 15:14:34 15:18:46 40° 293° (WNW) 15:22:42 437.475
AIST 2 11 Dec 15:17:06 15:21:21 83° 62° (ENE) 15:25:33 435.215
RS-15 11 Dec 15:22:32 15:34:59 84° 61° (ENE) 15:46:55 29.354- 29.394
BRITE-PL 11 Dec 15:31:21 15:35:15 32° 70° (ENE) 15:39:26 437.365/2234.400
M-CUBED/EXP-1 PRIME 11 Dec 15:32:51 15:36:21 22° 297° (WNW) 15:39:43 437.505
CUBESAT XI-V 11 Dec 15:34:55 15:37:43 16° 93° (E) 15:40:32 437.345
Cosmos 2491 11 Dec 15:36:08 15:41:55 19° 67° (ENE) 15:47:41 435.465 / 435.565
ITUPSAT 1 11 Dec 15:36:39 15:39:51 18° 294° (WNW) 15:43:02 437.325
CUTE-I 11 Dec 15:44:47 15:46:38 12° 61° (ENE) 15:48:29 437.470
NOAA 15 11 Dec 15:46:16 15:48:42 13° 62° (ENE) 15:51:08 137.62
DOVE 4 11 Dec 15:55:11 15:55:38 10° 61° (ENE) 15:56:06 437.250
Cubesat XI-IV 11 Dec 16:10:25 16:14:22 21° 66° (ENE) 16:18:19 437.490
GOMX 1 11 Dec 16:12:26 16:16:44 37° 71° (ENE) 16:21:21 467.674
AO-7 11 Dec 16:13:29 16:18:57 19° 267° (W) 16:24:28 29.400- 29.500
STARS 11 Dec 16:23:17 16:27:42 73° 102° (ESE) 16:32:03 437.465
KKS-1 11 Dec 16:35:19 16:39:25 36° 289° (WNW) 16:43:29 437.445
HORYU 2 11 Dec 16:44:07 16:48:27 48° 260° (W) 16:52:48 437.375
NOAA 18 11 Dec 16:44:12 16:48:54 29° 67° (ENE) 16:53:37 137.9125
MOZHAYETS 4 11 Dec 16:54:31 16:54:59 10° 297° (WNW) 16:55:26
Cosmos 2504 11 Dec 17:00:49 17:03:54 12° 75° (ENE) 17:07:01 435.465 / 435.565
BRITE-PL 11 Dec 17:10:34 17:13:49 20° 268° (W) 17:17:15 437.365/2234.400
CUBESAT XI-V 11 Dec 17:10:49 17:15:16 45° 287° (WNW) 17:19:43 437.345
SO-50 11 Dec 17:14:22 17:18:30 30° 113° (ESE) 17:22:37 436.795
CUTE-I 11 Dec 17:20:33 17:25:56 82° 258° (WSW) 17:31:19 437.470
NOAA 15 11 Dec 17:22:37 17:27:50 70° 258° (WSW) 17:33:05 137.62
AIST 1 11 Dec 17:25:07 17:26:18 11° 85° (E) 17:27:29
LilacSat-2 11 Dec 17:26:20 17:30:06 54° 260° (W) 17:33:51 437.200
DOVE 4 11 Dec 17:27:31 17:32:25 87° 259° (W) 17:37:37 437.250
Cosmos 2491 11 Dec 17:30:59 17:39:42 80° 266° (W) 17:48:25 435.465 / 435.565
RS-15 11 Dec 17:37:10 17:45:54 24° 260° (W) 17:54:26 29.354- 29.394
HO-68 11 Dec 17:37:13 17:43:21 32° 64° (ENE) 17:49:30 435.675
Cubesat XI-IV 11 Dec 17:48:58 17:54:05 44° 261° (W) 17:59:13 437.490
GOMX 1 11 Dec 17:51:29 17:54:56 20° 268° (W) 17:58:35 467.674
YUBILEINY 11 Dec 17:51:39 18:00:14 68° 92° (E) 18:08:54 435.215
CUTE 1.7 + AOD 2 11 Dec 17:54:58 17:58:15 23° 70° (ENE) 18:01:32 437.475
CINEMA 3 11 Dec 17:59:30 18:04:18 50° 74° (ENE) 18:09:09 145.822/145.860
CANX-2 11 Dec 18:13:32 18:17:32 44° 74° (ENE) 18:21:32 2200.000
CUSAT 1 11 Dec 18:16:55 18:20:23 21° 78° (ENE) 18:24:32 437.405
PCSat 11 Dec 18:20:29 18:25:20 32° 55° (NE) 18:30:08 145.827
COMPASS 1 11 Dec 18:24:21 18:27:29 21° 70° (ENE) 18:30:37 437.405
NOAA 18 11 Dec 18:24:26 18:29:24 33° 262° (W) 18:34:24 137.9125
SEEDS 11 Dec 18:25:39 18:29:24 34° 72° (ENE) 18:33:09 437.485
STRAND 1 11 Dec 18:30:08 18:34:50 37° 98° (E) 18:39:31 437.568
Cosmos 2504 11 Dec 18:47:14 18:55:38 77° 94° (E) 19:04:30 435.465 / 435.565
SO-50 11 Dec 18:54:47 18:58:55 29° 308° (NW) 19:03:01 436.795
Oscar 11 11 Dec 18:58:11 19:00:48 16° 67° (ENE) 19:03:25 145.826/435.025
AIST 1 11 Dec 18:59:09 19:03:21 50° 280° (W) 19:07:36
ISS 11 Dec 19:01:36 19:03:30 14° 26° (NNE) 19:05:24 145.825
CUBEBUG 2 11 Dec 19:10:49 19:15:32 72° 76° (ENE) 19:20:12 437.445
AAUSAT CUBESAT 2 11 Dec 19:21:41 19:25:46 82° 79° (E) 19:29:53 437.432
HO-68 11 Dec 19:24:01 19:30:47 45° 260° (W) 19:37:37 435.675
CUTE 1.7 + AOD 2 11 Dec 19:30:29 19:33:57 25° 264° (W) 19:37:26 437.475
Cosmos 2491 11 Dec 19:31:50 19:35:02 12° 284° (WNW) 19:38:13 435.465 / 435.565
CINEMA 3 11 Dec 19:38:37 19:41:39 16° 268° (W) 19:44:43 145.822/145.860
UWE-3 11 Dec 19:39:36 19:44:16 86° 261° (W) 19:48:50 435.000/436.395/437.385
YUBILEINY 11 Dec 19:51:09 19:57:43 23° 291° (WNW) 20:04:21 435.215
CANX-2 11 Dec 19:51:44 19:53:34 13° 268° (W) 19:55:25 2200.000
CUSAT 1 11 Dec 19:57:59 20:02:08 35° 264° (W) 20:07:25 437.405
COMPASS 1 11 Dec 19:59:26 20:02:52 25° 264° (W) 20:06:18 437.405
SEEDS 11 Dec 20:02:34 20:05:09 16° 267° (W) 20:07:45 437.485
PCSat 11 Dec 20:03:53 20:08:38 32° 251° (WSW) 20:13:22 145.827
ZACube-1 11 Dec 20:06:01 20:10:32 72° 259° (WSW) 20:15:00 437.345
DANDE 11 Dec 20:06:10 20:09:30 72° 82° (E) 20:13:54 436.750
STRAND 1 11 Dec 20:09:49 20:13:46 23° 293° (WNW) 20:17:42 437.568
FUNcube-1 11 Dec 20:09:54 20:14:23 71° 258° (WSW) 20:18:50 145.935
PRISM 11 Dec 20:20:24 20:24:08 31° 98° (E) 20:27:51 437.425
Oscar 11 11 Dec 20:32:34 20:36:35 39° 262° (W) 20:40:38 145.826/435.025
HUMSAT D 11 Dec 20:36:41 20:40:32 37° 73° (ENE) 20:44:22 437.325/437.525
ISS 11 Dec 20:37:04 20:40:23 82° 221° (SW) 20:43:40 145.825
Cosmos 2504 11 Dec 20:43:49 20:49:56 21° 293° (WNW) 20:56:15 435.465 / 435.565
DELFI C3 11 Dec 20:58:17 21:02:06 54° 260° (W) 21:05:58 145.870
PHONESAT 2.4 11 Dec 21:01:11 21:03:49 67° 157° (SSE) 21:06:27 2401.200-2431.200
UNISAT 6 11 Dec 21:16:43 21:20:30 29° 97° (E) 21:24:14 437.425
Cosmos 2499 11 Dec 21:36:16 21:36:47 10° 74° (ENE) 21:37:17 435.465 / 435.565
AISAT 11 Dec 21:41:53 21:43:29 12° 64° (ENE) 21:45:05 437.250
TIGRISAT 11 Dec 21:44:14 21:48:30 59° 101° (E) 21:52:41 435.000
ANTELSAT 11 Dec 21:47:26 21:51:45 70° 102° (ESE) 21:55:59 437.575/2403.000
CUBEBUG 1 11 Dec 21:48:29 21:51:39 20° 68° (ENE) 21:54:51 437.445
PRISM 11 Dec 21:56:16 21:59:11 19° 292° (WNW) 22:02:05 437.425
ESTCUBE 1 11 Dec 22:00:26 22:04:42 46° 73° (ENE) 22:08:59 437.505/2401.250
SPROUT 11 Dec 22:02:09 22:03:36 12° 65° (ENE) 22:05:04 437.525
DX 1 11 Dec 22:09:34 22:11:02 12° 64° (ENE) 22:12:30 434.975-435.025
JAS-2 11 Dec 22:10:39 22:14:58 24° 97° (E) 22:19:34 435.910
HUMSAT D 11 Dec 22:13:53 22:16:15 15° 267° (W) 22:18:37 437.325/437.525
VELOX 1 11 Dec 22:15:55 22:19:37 27° 70° (ENE) 22:23:20 145.980
QB50P2 11 Dec 22:17:57 22:20:23 15° 93° (E) 22:22:47 145.880/145.840
POLYITAN 1 11 Dec 22:18:29 22:20:41 14° 93° (E) 22:22:53 437.675
DUCHIFAT 1 11 Dec 22:24:29 22:26:36 14° 93° (E) 22:28:43 145.980
QB50P1 11 Dec 22:28:38 22:31:37 19° 94° (E) 22:34:34 145.935-145.965
GONETS M04 11 Dec 22:32:15 22:39:14 28° 84° (E) 22:46:11
PHONESAT 2.4 11 Dec 22:36:36 22:39:03 33° 353° (N) 22:41:30 2401.200-2431.200
POPSAT HIP 1 11 Dec 22:50:09 22:53:59 32° 98° (E) 22:57:45 437.405
UNISAT 6 11 Dec 22:53:51 22:57:00 20° 292° (WNW) 23:00:07 437.425
BUGSAT 1 11 Dec 22:55:32 22:56:13 10° 91° (E) 22:56:53 437.445
AO-85 11 Dec 22:57:48 23:01:52 25° 112° (ESE) 23:05:45 145.980
50 SAT 11 Dec 23:08:45 23:12:14 84° 258° (WSW) 23:15:46 437.505
AISAT 11 Dec 23:15:02 23:19:23 59° 259° (W) 23:23:48 437.250
Cosmos 2499 11 Dec 23:19:35 23:28:05 67° 92° (E) 23:36:54 435.465 / 435.565
TIGRISAT 11 Dec 23:23:40 23:24:37 11° 296° (WNW) 23:25:33 435.000
CUBEBUG 1 11 Dec 23:23:47 23:27:41 32° 263° (W) 23:31:39 437.445
SPROUT 11 Dec 23:34:47 23:39:00 56° 260° (W) 23:43:15 437.525
O/OREOS (USA 219) 11 Dec 23:35:11 23:38:56 26° 62° (ENE) 23:42:40 437.305
UKube-1 11 Dec 23:36:08 23:40:26 86° 77° (ENE) 23:44:47 .
ESTCUBE 1 11 Dec 23:39:26 23:41:43 14° 268° (W) 23:44:00 437.505/2401.250
NANOSAT C BR1 11 Dec 23:39:39 23:43:50 63° 284° (WNW) 23:47:57 145.865
DX 1 11 Dec 23:42:24 23:46:40 58° 259° (W) 23:50:59 434.975-435.025
QB50P2 11 Dec 23:52:22 23:56:18 38° 288° (WNW) 00:00:11 145.880/145.840
VELOX 1 11 Dec 23:52:26 23:55:59 24° 264° (W) 23:59:35 145.980
POLYITAN 1 11 Dec 23:52:41 23:56:38 40° 287° (WNW) 00:00:33 437.675
JAS-2 11 Dec 23:55:17 00:00:05 36° 289° (WNW) 00:05:16 435.910
DUCHIFAT 1 11 Dec 23:58:30 00:02:27 40° 287° (WNW) 00:06:21 145.980
QB50P1 12 Dec 00:03:42 00:07:24 30° 289° (WNW) 00:11:04 145.935-145.965
PHONESAT 2.4 12 Dec 00:12:02 00:14:30 34° 9° (N) 00:16:58 2401.200-2431.200
AUBIESAT-1 12 Dec 00:24:37 00:27:02 15° 60° (ENE) 00:29:31 437.475
POPSAT HIP 1 12 Dec 00:26:38 00:29:28 18° 292° (WNW) 00:32:19 437.405
GONETS M04 12 Dec 00:26:58 00:35:27 55° 281° (W) 00:43:58
SWISSCUBE 12 Dec 00:27:43 00:30:58 19° 66° (ENE) 00:34:14 437.505
BUGSAT 1 12 Dec 00:27:50 00:31:52 51° 286° (WNW) 00:35:48 437.445
BEESAT 12 Dec 00:31:06 00:34:17 18° 66° (ENE) 00:37:28 436.000
TISAT 1 12 Dec 00:32:33 00:36:47 82° 259° (W) 00:41:03 437.305
AO-85 12 Dec 00:37:43 00:42:11 34° 305° (NW) 00:46:21 145.980
M-CUBED/EXP-1 PRIME 12 Dec 00:41:17 00:44:53 27° 64° (ENE) 00:48:40 437.505
Oscar 19 12 Dec 00:54:08 00:59:16 57° 101° (E) 01:04:22 437.125/150
ITUPSAT 1 12 Dec 01:01:58 01:06:19 36° 71° (ENE) 01:10:42 437.325
O/OREOS (USA 219) 12 Dec 01:14:34 01:18:12 25° 258° (WSW) 01:21:50 437.305
Cosmos 2499 12 Dec 01:15:02 01:21:51 25° 291° (WNW) 01:28:51 435.465 / 435.565
ITAMSAT 1 12 Dec 01:39:06 01:41:58 15° 93° (E) 01:44:50 435.822/435.867
Gurwin Techsat 1B 12 Dec 01:44:13 01:49:33 87° 102° (ESE) 01:54:52 435.225
PHONESAT 2.4 12 Dec 01:47:06 01:49:42 56° 204° (SSW) 01:52:16 2401.200-2431.200
SO-50 12 Dec 01:49:02 01:51:33 15° 45° (NE) 01:54:03 436.795
KKS-1 12 Dec 01:56:28 01:58:24 13° 64° (ENE) 02:00:21 437.445
AUBIESAT-1 12 Dec 01:56:47 02:00:54 51° 256° (WSW) 02:05:18 437.475
SWISSCUBE 12 Dec 02:03:56 02:08:25 41° 261° (W) 02:12:55 437.505
BEESAT 12 Dec 02:07:12 02:11:42 42° 261° (W) 02:16:14 436.000
MOZHAYETS 4 12 Dec 02:12:55 02:17:19 48° 74° (ENE) 02:21:43
M-CUBED/EXP-1 PRIME 12 Dec 02:15:45 02:19:14 25° 261° (W) 02:22:56 437.505
AO-7 12 Dec 02:22:33 02:29:43 31° 97° (E) 02:36:48 29.400- 29.500
Oscar 19 12 Dec 02:34:58 02:38:04 16° 296° (WNW) 02:41:10 437.125/150
CUBESAT XI-V 12 Dec 02:37:10 02:38:44 12° 64° (ENE) 02:40:18 437.345
BEESAT 3 12 Dec 02:37:32 02:41:23 72° 118° (ESE) 02:45:18 437.485
ITUPSAT 1 12 Dec 02:40:45 02:44:13 20° 265° (W) 02:47:42 437.325
